Retour au catalogue

STARLINK-6194

ActifCommunicationsVLEO
NORAD 57077·PAYLOAD·🇺🇸 United States

Lancé Jun 22, 2023 depuis Vandenberg Space Force Base

Loading…

Prochains Passages (prochaines 24 heures)

TLE

FraisSource: CelesTrak SupGP

Époque: Sep 14, 2026, 22:03 UTC

1 57077C 23088AF  26257.91923611  .00010654  00000+0  38593-3 0  2574
2 57077  43.0022 107.8245 0001251 274.3456 182.4720 15.27568516    17

Suivez STARLINK-6194 en temps réel avec AllMySat

Download on the App Store